Date String (YYYY-MM-DD hh:mm:ss) UTC,Instrument flags,Ambient pressure (hPa),Sample flow (lpm),Bypass flow (lpm),Sample temperature (°C),Ambient temperature (°C),ASC tube jacket temperature (°C),LED temperature (°C),Box temperature (°C),Sample RH (%),Span deviation,Mass concentration (μg/m³),Mass concentration (μg/m³),Mass concentration (μg/m³)
DateTimeUTC,F1_M11,P_M11,Q1_M11,Q2_M11,T1_M11,T2_M11,T3_M11,T4_M11,T5_M11,U1_M11,ZSPAN_M11,X2_M11,X0_M11,X1_M11
2022-07-11 08:00:00,,0828.5,5.01,0.00,29.3,27.1,00.0,38.0,31.1,20.5,0000.0,0004.73,0007.61,0004.42
2022-07-11 08:01:00,,0828.5,4.99,0.00,29.2,27.2,00.0,38.0,31.0,20.5,0000.0,0004.74,0007.76,0004.41
2022-07-11 08:02:00,,0828.5,5.00,0.00,29.2,27.3,00.0,38.0,31.0,20.6,0000.0,0004.71,0008.17,0004.40
2022-07-11 08:03:00,,0828.5,5.01,0.00,29.2,27.5,00.0,38.0,31.1,20.6,0000.0,0004.66,0008.05,0004.38
2022-07-11 08:04:00,,0828.5,5.00,0.00,29.2,27.7,00.0,38.0,31.1,20.6,0000.0,0004.64,0007.97,0004.38
2022-07-11 08:05:00,,0828.6,5.00,0.00,29.2,27.8,00.0,38.0,31.1,20.5,0000.0,0004.64,0008.04,0004.37
2022-07-11 08:06:00,,0828.6,5.01,0.00,29.3,28.0,00.0,38.0,31.2,20.5,0000.0,0004.65,0008.60,0004.36
2022-07-11 08:07:00,,0828.5,5.00,0.00,29.3,28.1,00.0,38.0,31.2,20.5,0000.0,0004.65,0008.56,0004.35
2022-07-11 08:08:00,,0828.7,5.01,0.00,29.3,28.2,00.0,38.1,31.3,20.4,0000.0,0004.65,0008.58,0004.36
2022-07-11 08:09:00,,0828.5,5.01,0.00,29.4,28.3,00.0,38.1,31.3,20.3,0000.0,0004.65,0008.59,0004.35
2022-07-11 08:10:00,,0828.4,4.98,0.00,29.4,28.3,00.0,38.1,31.4,20.3,0000.0,0004.63,0008.53,0004.34
2022-07-11 08:11:00,,0828.4,5.00,0.00,29.4,27.8,00.0,38.0,31.3,20.3,0000.0,0004.61,0008.49,0004.34
2022-07-11 08:12:00,,0828.5,4.99,0.00,29.4,27.3,00.0,38.0,31.2,20.4,0000.0,0004.62,0008.41,0004.33
2022-07-11 08:13:00,,0828.4,5.01,0.00,29.3,27.2,00.0,38.0,31.2,20.5,0000.0,0004.64,0007.86,0004.35
2022-07-11 08:14:00,,0828.4,4.99,0.00,29.3,27.3,00.0,38.0,31.1,20.6,0000.0,0004.67,0008.57,0004.37
2022-07-11 08:15:00,,0828.4,5.01,0.00,29.3,27.4,00.0,38.0,31.1,20.6,0000.0,0004.70,0008.75,0004.39
2022-07-11 08:16:00,,0828.3,5.00,0.00,29.3,27.5,00.0,38.0,31.1,20.5,0000.0,0004.71,0008.74,0004.41
2022-07-11 08:17:00,,0828.3,5.00,0.00,29.3,27.7,00.0,38.0,31.1,20.5,0000.0,0004.75,0008.95,0004.43
2022-07-11 08:18:00,,0828.5,5.01,0.00,29.3,27.8,00.0,38.0,31.2,20.2,0000.0,0004.79,0009.29,0004.47
2022-07-11 08:19:00,,0828.3,5.00,0.00,29.3,28.0,00.0,38.1,31.2,20.0,0000.0,0004.80,0009.24,0004.51
2022-07-11 08:20:00,,0828.3,5.00,0.00,29.3,28.1,00.0,38.1,31.3,20.1,0000.0,0004.86,0009.48,0004.55
2022-07-11 08:21:00,,0828.3,5.01,0.00,29.4,28.2,00.0,38.1,31.3,19.7,0000.0,0004.92,0009.96,0004.58
2022-07-11 08:22:00,,0828.3,5.00,0.00,29.4,28.3,00.0,38.1,31.3,19.6,0000.0,0004.99,0010.09,0004.61
2022-07-11 08:23:00,,0828.3,5.00,0.00,29.4,28.3,00.0,38.1,31.4,19.5,0000.0,0005.03,0010.19,0004.63
2022-07-11 08:24:00,,0828.2,5.00,0.00,29.4,27.6,00.0,38.1,31.3,19.5,0000.0,0005.08,0010.24,0004.66
2022-07-11 08:25:00,,0828.3,5.01,0.00,29.4,27.2,00.0,38.0,31.2,19.5,0000.0,0005.15,0009.71,0004.70
2022-07-11 08:26:00,,0828.2,4.99,0.00,29.3,27.2,00.0,38.0,31.1,19.6,0000.0,0005.23,0009.75,0004.74
2022-07-11 08:27:00,,0828.3,5.01,0.00,29.3,27.3,00.0,38.0,31.0,19.8,0000.0,0005.35,0010.34,0004.79
2022-07-11 08:28:00,,0828.2,5.00,0.00,29.3,27.4,00.0,38.0,31.0,19.9,0000.0,0005.39,0010.00,0004.83
2022-07-11 08:29:00,,0828.2,5.00,0.00,29.3,27.5,00.0,38.0,31.1,19.9,0000.0,0005.42,0009.66,0004.86
2022-07-11 08:30:00,,0828.2,5.00,0.00,29.3,27.7,00.0,38.1,31.1,19.9,0000.0,0005.50,0009.40,0004.88
2022-07-11 08:31:00,,0828.3,5.01,0.00,29.3,27.8,00.0,38.1,31.1,19.9,0000.0,0005.51,0009.28,0004.89
2022-07-11 08:32:00,,0828.2,5.01,0.00,29.3,27.9,00.0,38.1,31.2,19.9,0000.0,0005.52,0008.94,0004.92
2022-07-11 08:33:00,,0828.3,5.01,0.00,29.3,28.1,00.0,38.1,31.3,19.8,0000.0,0005.54,0008.95,0004.96
2022-07-11 08:34:00,,0828.3,5.00,0.00,29.4,28.2,00.0,38.1,31.3,19.8,0000.0,0005.57,0008.96,0005.00
2022-07-11 08:35:00,,0828.2,5.00,0.00,29.4,28.3,00.0,38.1,31.3,19.8,0000.0,0005.61,0008.99,0005.03
2022-07-11 08:36:00,,0828.3,5.00,0.00,29.4,28.3,00.0,38.2,31.4,19.9,0000.0,0005.65,0009.28,0005.06
2022-07-11 08:37:00,,0828.3,5.00,0.00,29.5,28.4,00.0,38.2,31.4,20.0,0000.0,0005.64,0009.93,0005.07
2022-07-11 08:38:00,,0828.2,4.99,0.00,29.5,28.0,00.0,38.1,31.4,20.0,0000.0,0005.60,0009.50,0005.06
2022-07-11 08:39:00,,0828.3,5.01,0.00,29.4,27.0,00.0,38.1,31.2,20.0,0000.0,0005.59,0009.18,0005.06
2022-07-11 08:40:00,,0828.3,5.00,0.00,29.4,26.7,00.0,38.0,31.1,20.0,0000.0,0005.60,0009.30,0005.05
2022-07-11 08:41:00,,0828.2,5.00,0.00,29.3,26.7,00.0,38.0,31.0,20.1,0000.0,0005.55,0009.34,0005.04
2022-07-11 08:42:00,,0828.3,5.00,0.00,29.2,26.8,00.0,38.0,30.9,20.1,0000.0,0005.55,0009.75,0005.05
2022-07-11 08:43:00,,0828.3,5.00,0.00,29.2,27.0,00.0,38.0,30.9,20.2,0000.0,0005.59,0009.87,0005.06
2022-07-11 08:44:00,,0828.3,5.00,0.00,29.2,27.2,00.0,38.0,31.0,20.3,0000.0,0005.58,0009.81,0005.05
2022-07-11 08:45:00,,0828.3,4.99,0.00,29.2,27.4,00.0,38.0,31.0,20.3,0000.0,0005.59,0010.52,0005.06
2022-07-11 08:46:00,,0828.3,5.00,0.00,29.2,27.5,00.0,38.0,31.0,20.2,0000.0,0005.54,0010.59,0005.05
2022-07-11 08:47:00,,0828.3,5.00,0.00,29.2,27.7,00.0,38.0,31.1,20.2,0000.0,0005.50,0010.78,0005.03
2022-07-11 08:48:00,,0828.3,5.01,0.00,29.2,27.8,00.0,38.0,31.1,20.2,0000.0,0005.48,0010.16,0005.03
2022-07-11 08:49:00,,0828.3,5.00,0.00,29.3,28.0,00.0,38.1,31.2,20.3,0000.0,0005.45,0010.10,0005.04
2022-07-11 08:50:00,,0828.4,4.98,0.00,29.3,28.1,00.0,38.1,31.2,20.3,0000.0,0005.45,0010.07,0005.03
2022-07-11 08:51:00,,0828.4,5.01,0.00,29.3,28.2,00.0,38.1,31.3,20.2,0000.0,0005.45,0010.03,0005.03
2022-07-11 08:52:00,,0828.4,5.00,0.00,29.4,28.3,00.0,38.1,31.3,20.1,0000.0,0005.48,0010.06,0005.04
2022-07-11 08:53:00,,0828.4,4.99,0.00,29.4,28.4,00.0,38.1,31.4,20.0,0000.0,0005.51,0010.00,0005.04
2022-07-11 08:54:00,,0828.4,5.00,0.00,29.4,28.4,00.0,38.1,31.4,19.9,0000.0,0005.50,0009.95,0005.05
2022-07-11 08:55:00,,0828.4,5.00,0.00,29.5,28.5,00.0,38.2,31.5,19.6,0000.0,0005.52,0010.24,0005.05
2022-07-11 08:56:00,,0828.4,5.00,0.00,29.5,28.2,00.0,38.1,31.4,19.8,0000.0,0005.49,0009.57,0005.05
2022-07-11 08:57:00,,0828.4,5.01,0.00,29.5,27.5,00.0,38.1,31.3,20.2,0000.0,0005.51,0009.41,0005.05
2022-07-11 08:58:00,,0828.4,5.00,0.00,29.4,27.3,00.0,38.1,31.3,20.1,0000.0,0005.51,0009.23,0005.04
2022-07-11 08:59:00,,0828.4,5.00,0.00,29.4,27.3,00.0,38.1,31.2,19.9,0000.0,0005.52,0009.02,0005.03
